Content
SEND FEEDBACK

Daily
Averages
Monthly
Summary
United States of America

ST. LOUIS - SAINT LOUIS UNIVERSITY, MISSOURI


Home > North America > United States > Missouri
Elevation: 177 meters     Latitude: 38 38N     Longitude: 090 14W

WEATHER
 
SELECT A DAY
Number of Records: 189,976;   Date Range: 1/1/95 - 11/24/14
 
SHARE

PRINT THIS DATA

[ ← Previous Day ]
WEATHER ALMANAC - 11 JANUARY, 2013
[ Next Day → ]
[ °F ]   °C
Weather ElementAverageHighLow
Temperature13.4 °C17.2 °C (2:53 pm)10 °C (7:53 am)
Dewpoint8.4 °C11.1 °C (1:53 am)7.2 °C (6:53 am)
Humidity72.8 %87 % (1:53 am)58 % (2:53 pm)
Barometer1010.2 hPa1012.2 hPa (8:53 am)1008.8 hPa (4:53 pm)
Wind Speed14.3 km/h24.1 km/h (3:53 pm)
Wind Gust35.2 km/h (12:53 pm)
Weather ElementAverage
Visibility16.1 km
Wind DirectionSSW (187.8 °)

Weather ElementTotal
Precipitation0.25 mm
Heating Degree Days4.7 (Base 18.3)
Growing Degree Days3.6 (Base 10)
Averaged from 23 records on 11 January, 2013
WEATHER CONDITIONS BREAKOUT
WIND DIRECTION BREAKOUT
WEATHER BY HOUR - 11 JANUARY, 2013
[ °F ]   °C
Local TimeTemperatureDewpointHumidityBarometerVisibilityWind DirectionWind SpeedGust SpeedPrecipitationEventsConditions
1:53 AM13.3 °C11.1 °C87 %1009.8 hPa16.1 kmSSW (210°)9.3 km/hOvercast
2:53 AM12.8 °C10 °C83 %1009.8 hPa16.1 kmSW (220°)9.3 km/hOvercast
3:53 AM12.8 °C8.9 °C77 %1010.2 hPa16.1 kmSW (220°)11.1 km/hMostly Cloudy
4:53 AM11.7 °C8.3 °C80 %1010.2 hPa16.1 kmSW (220°)11.1 km/hPartly Cloudy
5:53 AM11.1 °C7.8 °C80 %1010.5 hPa16.1 kmSW (220°)14.8 km/h25.9 km/hPartly Cloudy
6:53 AM10.6 °C7.2 °C80 %1011.2 hPa16.1 kmSouth (190°)9.3 km/hScattered Clouds
7:53 AM10 °C7.2 °C83 %1011.9 hPa16.1 kmSouth (190°)7.4 km/hOvercast
8:53 AM11.1 °C7.8 °C80 %1012.2 hPa16.1 kmSouth (170°)7.4 km/hPartly Cloudy
9:53 AM12.8 °C7.8 °C72 %1011.9 hPa16.1 kmSouth (190°)16.7 km/hClear
10:53 AM13.3 °C8.3 °C72 %1011.5 hPa16.1 kmSouth (190°)14.8 km/h25.9 km/hClear
11:53 AM15 °C8.9 °C67 %1010.5 hPa16.1 kmSSE (160°)20.4 km/h33.3 km/h0.25 mmClear
12:53 PM15.6 °C8.9 °C64 %1010.2 hPa16.1 kmSouth (190°)22.2 km/h35.2 km/hClear
1:53 PM16.7 °C8.9 °C60 %1009.1 hPa16.1 kmSouth (170°)14.8 km/h29.6 km/hClear
2:53 PM17.2 °C8.9 °C58 %1009.5 hPa16.1 kmSouth (180°)20.4 km/hClear
3:53 PM16.7 °C8.3 °C58 %1009.1 hPa16.1 kmSouth (170°)24.1 km/h31.5 km/hClear
4:53 PM15 °C8.3 °C64 %1008.8 hPa16.1 kmSouth (170°)24.1 km/h35.2 km/hClear
5:53 PM13.9 °C8.3 °C69 %1009.5 hPa16.1 kmSouth (170°)16.7 km/h31.5 km/hClear
6:53 PM12.8 °C7.8 °C72 %1010.2 hPa16.1 kmSouth (180°)13 km/hClear
7:53 PM12.2 °C8.3 °C77 %1009.8 hPa16.1 kmSSE (160°)13 km/hClear
8:53 PM12.2 °C8.3 °C77 %1010.2 hPa16.1 kmSouth (170°)11.1 km/hClear
9:53 PM12.8 °C8.3 °C74 %1009.8 hPa16.1 kmSouth (190°)13 km/h
10:53 PM13.9 °C8.9 °C72 %1010.2 hPa16.1 kmSSW (200°)14.8 km/h
11:53 PM13.9 °C8.3 °C69 %1010.2 hPa16.1 kmSouth (190°)11.1 km/h
Hourly data recorded from KCPS, located 0 kilometers away from St. Louis - Saint Louis University, Missouri







STORIES FROM OUR PARTNERS